Mid Delta Regional Airport Greenville US
ICAO: KGLH
IATA: GLH
Category: Medium
Scheduled Services: Yes

Elevation: 131 ft
TransAlt. 18000 ft.

Airport Communications:
ASOS:125.525
MEMPHIS CNTR:135.875
CTAF:119
GND:121.8
GREENVILLE TWR:119
UNICOM:122.95

KGLH Zoom In..

If you have problems with the map follow the link
https://www.worldairports.se/pages/airport.php?
ICAO=KGLH

Runways:

(A) RW 18L length 8001 ft width 150 ft
ILS 109.10 / hdg 177

(B) RW 18R length 7019 ft width 150 ft
---- / hdg 177

(C) RW 36L length 7019 ft width 150 ft
---- / hdg 357

(D) RW 36R length 8001 ft width 150 ft
---- / hdg 357

Location; KGLH
Day. 18 / Time. 01.53 Zulu
* Altimeter: 30.00
* Temperature: 06° c. 42.8°f.
* Wind from: 330° Speed 08 kn.
Dewpoint: 04° c.
Visibility: 10 Statute Miles.
Clouds: Clear (automated report).

KGLH 180153Z AUTO 33008KT 10SM CLR 06/04 A3000 RMK AO2 SLP167 T00610039


Wind From 330°
Speed 08 kn.

 
 
jpsmedia.com for Web Design worldairports.se 2019   terms of use